Flag for Namibia Weather past 2 weeks in Walvis Bay, Namibia

Now
55 °F

Cool.


Feels Like: 54 °F
Forecast: 62 / 72 °F
Wind: 6 mph from Northeast

Location: Walvis Bay

Current Time: May 6, 2015 at 1:34:13 AM

Latest Report: May 6, 2015 at 12:00 AM


Visibility: N/A

Pressure: 29.98 "Hg

Humidity: 82%

Dew point: 50 °F

Location of Walvis BayLocation

Historic Weather in Walvis Bay — Graph

°F

Walvis Bay temperature yesterday

Maximum temperature yesterday: 86 °F (at 2:00 PM)
Minimum temperature yesterday: 48 °F (at 4:00 AM)
Average temperature yesterday: 62 °F

Past Weeks' High & Low Weather Summary

 TemperatureHumidityPressure
High93 °F (May 3, 2:00 PM)100% (Apr 21, 3:00 AM)30.09 "Hg (Apr 21, 3:00 AM)
Low48 °F (Apr 21, 1:00 AM)12% (May 3, 2:00 PM)29.92 "Hg (Apr 23, 3:00 PM)
Average60 °F72%30.00 "Hg
* Reported Midnight between Apr 20 and Apr 21 — Midnight between May 5 and May 6, Walvis Bay, Weather by CustomWeather, © 2015

Note: Actual official high and low records may vary slightly from our data, if they occured in-between our weather recording intervals... More about our weather records

Advertising

Walvis Bay weather history for previous 24 hours

 ConditionsComfort  
Time TempWeatherWind HumidityBarometerVisibility
12:00 AM
Wed, May 6
55 °FCool.6 mph82%29.98 "HgN/A
11:00 PM
Tue, May 5
57 °FCool.3 mph72%29.98 "HgN/A
10:00 PM57 °FCool.2 mph72%29.98 "HgN/A
9:00 PM59 °FCool.3 mph72%29.98 "HgN/A
8:00 PM61 °FCool.2 mph68%29.95 "HgN/A
7:00 PM63 °FClear.1 mph64%29.95 "Hg10 mi
5:00 PM70 °FClear.10 mph46%29.95 "Hg10 mi
4:00 PM75 °FSunny.12 mph39%29.95 "Hg10 mi
3:00 PM82 °FSunny.13 mph28%29.95 "Hg10 mi
2:00 PM86 °FPleasantly warm.12 mph22%29.95 "HgN/A
1:00 PM82 °FSunny.8 mph28%29.98 "Hg10 mi
12:00 PM77 °FSunny.6 mph36%30.01 "Hg10 mi
11:00 AM70 °FSunny.7 mph50%30.04 "Hg10 mi
10:00 AM64 °FSunny.3 mph60%30.04 "Hg10 mi
9:00 AM59 °FCool.3 mph72%30.01 "HgN/A
8:00 AM54 °FSunny.2 mph88%30.01 "Hg10 mi
7:00 AM48 °FSunny.3 mph94%29.98 "Hg10 mi
6:00 AM48 °FSunny.2 mph94%29.98 "Hg10 mi
5:00 AM48 °FCool.3 mph94%29.98 "HgN/A
4:00 AM48 °FCool.3 mph100%29.98 "HgN/A
3:00 AM50 °FCool.5 mph100%29.98 "HgN/A
2:00 AM50 °FCool.6 mph100%29.98 "HgN/A
1:00 AM52 °FCool.6 mph88%30.01 "HgN/A
Weather by CustomWeather, © 2015

See weather overviewHow to use our weather pages